THOR BURNER 2 R/B

Satellite information

Favourite Embed

Satellite Type and Status

ROCKET BODYIN ORBIT

Key statistics

Satellite THOR BURNER 2 R/B at a glance.

Uptime

21417

Days in orbit

Revolutions

≈ 14.5

Per day

Orbit

SSO

Sun Synchronous Orbit

Inclination

98.2

Latest

Satellite identification and parameters

Extended collection of information and parameters for THOR BURNER 2 R/B.

Object identification

Identified? True

Debris? False

Object name: THOR BURNER 2 R/B

International designator: 1966-082B

Object number (NORAD): 2422

Object ID (CCSDS): 2422

Country: UNITED STATES OF AMERICA (US)

Current information (Y/N): Y

RCS size: LARGE

Orbital parameters

Period: 99.564 minutes

Inclination: 98.1943 deg

SMA: 7115.899 km

Apoapsis: 816.777 km

Periapsis: 658.751 km

RAAN: 287.329 deg

Eccentricy: 0.0111037

Argument of periapsis: 11.8997 deg

Mean anomaly: 348.4779 deg

Mean motion: 14.4629899 rev/day

Mean motion (dot): 0.00000522 rev/day2

B* drag term: 0.00014695 1/REarth

Two-line elements (TLE)

Creation date: May 6, 2025, 3:54 a.m.

Reference frame: TEME

Reference center: EARTH

Epoch: May 5, 2025, 10:18 a.m. UTC

TLE line 0: 0 THOR BURNER 2 R/B

TLE line 1: 1 02422U 66082B 25125.42937440 .00000522 00000-0 14695-3 0 9997

TLE line 2: 2 02422 98.1943 287.3290 0111037 11.8997 348.4779 14.46298990 56325

Live tracking on map

Real-time ground track for satellite THOR BURNER 2 R/B.

In-orbit conjunctions

A list of the most updated potential collisions computed for object THOR BURNER 2 R/B.

Target Orbit TCA Probability of collision Miss distance Type
SL-14 DEB LEO 2025-05-06 08:28:47 0.000175618 511.0 (m) DEBRIS
FENGYUN 1C DEB SSO 2025-04-20 00:30:08 0.0002518219 294.0 (m) DEBRIS
COSMOS 1375 DEB LEO 2025-03-10 12:58:14 0.0003028478 142.0 (m) DEBRIS
DMSP 5D-2 F13 DEB SSO 2024-11-14 19:35:57 0.0003615603 66.0 (m) DEBRIS
IRIDIUM 33 DEB LEO 2024-10-02 02:25:57 0.000793791 199.0 (m) DEBRIS

Associated space launch

DSAP-4A (Defense Satellite Application Program Block 4A) was the fourth version of the military meteorological satellites of the Defense Meteorological Satellite Program.

THOR BURNER 2 R/B was lifted into orbit during the mission ‘Thor Burner 2 | DSAP-4A F1’, on board a Thor Burner 2 space rocket.

The launch took place on Sept. 16, 1966, 4:36 a.m. from Space Launch Complex 10W.

For more information about the launch, click the button.

Launch to space Thor Burner 2 | DSAP-4A F1
Thor Burner 2 | DSAP-4A F1

Agency: N/A

Status: Launch Successful

Launch date: Sept. 16, 1966, 4:36 a.m. UTC

Rocket: Thor Burner 2

Launch pad: Space Launch Complex 10W

Location: Vandenberg SFB, CA, USA

...

Latest news about this satellite

There are no fresh news available about this satellite. Check back as we update our databases every day.


Newsletter sign-up

Weekly statistics, charts and insights to help you stay on top of the space industry.